Printer-friendly version
Follow the MPC on Twitter Follow the MPC on Facebook The MPC blog
Minor Planet Center

MPEC 2010-E43 : 2010 CV180

The following Minor Planet Electronic Circular may be linked-to from your own Web pages, but must not otherwise be redistributed electronically.

A form allowing access to any MPEC is at the bottom of this page.


Read MPEC 2010-E42 Read MPEC 2010-E44


M.P.E.C. 2010-E43                                Issued 2010 Mar. 10, 21:25 UT

     The Minor Planet Electronic Circulars contain information on unusual
         minor planets and routine data on comets.  They are published
   on behalf of Commission 20 of the International Astronomical Union by the
          Minor Planet Center, Smithsonian Astrophysical Observatory,
                          Cambridge, MA 02138, U.S.A.

             Prepared using the Tamkin Foundation Computer Network

                              MPC@CFA.HARVARD.EDU
       URL http://www.minorplanetcenter.org/iau/mpc.html  ISSN 1523-6714

                                  2010 CV180

Observations:
     K10CI0V* C2010 02 15.25769 10 55 52.32 +14 28 07.4          19.4 V EE043703
     K10CI0V  C2010 02 15.26682 10 55 51.60 +14 27 57.8          19.4 V EE043703
     K10CI0V  C2010 02 15.27606 10 55 50.91 +14 27 48.6          19.6 V EE043703
     K10CI0V  C2010 02 15.28538 10 55 50.16 +14 27 38.8          19.7 V EE043703
     K10CI0V  C2010 02 19.20394 10 50 33.04 +13 17 19.3                 EE043691
     K10CI0V  C2010 02 19.22167 10 50 31.39 +13 16 59.2                 EE043691
     K10CI0V  C2010 02 19.23938 10 50 29.77 +13 16 39.1                 EE043691
     K10CI0V  C2010 03 04.31325 10 27 20.66 +08 07 40.8          18.5 V EE043703
     K10CI0V  C2010 03 04.31898 10 27 19.90 +08 07 30.9          18.4 V EE043703
     K10CI0V  C2010 03 04.32478 10 27 19.18 +08 07 21.6          18.4 V EE043703
     K10CI0V  C2010 03 04.33059 10 27 18.43 +08 07 10.9          18.6 V EE043703
     K10CI0V  C2010 03 09.81119 10 15 55.34 +05 21 52.5          17.5 V EE043J75
     K10CI0V  C2010 03 09.82551 10 15 53.45 +05 21 25.4          18.0 V EE043J75
     K10CI0V  C2010 03 09.83985 10 15 51.58 +05 20 58.0          18.3 V EE043J75
     K10CI0V  C2010 03 09.92731 10 15 39.96 +05 18 10.6          18.2 V EE043J75
     K10CI0V  C2010 03 09.93405 10 15 39.07 +05 17 57.6          18.4 V EE043J75
     K10CI0V  C2010 03 09.93571 10 15 38.84 +05 17 54.4          18.3 V EE043J75
     K10CI0V  C2010 03 10.09260 10 15 17.96 +05 12 52.2          18.4 V EE043J75
     K10CI0V  C2010 03 10.09596 10 15 17.51 +05 12 45.0          18.2 V EE043J75
     K10CI0V  C2010 03 10.09933 10 15 17.05 +05 12 38.8          18.1 V EE043J75
     K10CI0V  C2010 03 10.81273 10 13 47.66 +04 49 33.6          18.0 V EE043J75
     K10CI0V  C2010 03 10.81414 10 13 47.47 +04 49 31.3          18.2 V EE043J75
     K10CI0V  C2010 03 10.81549 10 13 47.28 +04 49 28.7          17.8 V EE043J75
     K10CI0V  C2010 03 10.81689 10 13 47.09 +04 49 25.7          17.9 V EE043J75

Observer details:
691 Steward Observatory, Kitt Peak.  Observer R. S. McMillan.  0.9-m f/3
    reflector + CCD.
703 Catalina Sky Survey.  Observers R. E. Hill, R. A. Kowalski.  Measurers
    J. D. Ahern, E. C. Beshore, A. Boattini, G. J. Garradd, A. R. Gibbs,
    A. D. Grauer, R. E. Hill, R. A. Kowalski, S. M. Larson, R. H. McNaught.
    0.68-m Schmidt + CCD.
J75 OAM Observatory, La Sagra.  Observers S. Sanchez, J. Nomen, R. Stoss,
    M. Hurtado, W. K. Y. Yeung, J. Rodrig.  0.45-m f/2.8 reflector + CCD.

Orbital elements:
2010 CV180                                               Earth MOID = 0.3332 AU
Epoch 2010 Jan. 4.0 TT = JDT 2455200.5                  MPC
M 335.80377              (2000.0)            P               Q
n   0.18426880     Peri.  239.91571     -0.75674403     +0.64377015
a   3.0584509      Node   339.45272     -0.43059404     -0.62159978
e   0.6028235      Incl.   18.87978     -0.49186100     -0.44628882
P   5.35           H   18.5           G   0.15           U   6
Residuals in seconds of arc
100215 703  0.0   0.2+    100304 703  0.3-  0.0     100309 J75  0.1-  0.1+
100215 703  0.0   0.3-    100304 703  0.0   0.5+    100310 J75  0.2+  0.3+
100215 703  0.5+  0.2-    100304 703  0.1-  0.3-    100310 J75  0.1+  0.4-
100215 703  0.3+  0.7-    100309 J75  0.2+  0.2-    100310 J75  0.2-  0.1-
100219 691  0.2+  0.1+    100309 J75  0.0   0.0     100310 J75  0.2+  0.3-
100219 691  0.3-  0.1+    100309 J75  0.2+  0.0     100310 J75  0.1+  0.1+
100219 691  0.2-  0.1+    100309 J75  0.1-  0.2+    100310 J75  0.1-  0.1+
100304 703  0.1+  0.1+    100309 J75  0.1+  0.1+    100310 J75  0.2-  0.1-

Ephemeris:
2010 CV180               a,e,i = 3.06, 0.60, 19                  q = 1.2147
Date    TT    R. A. (2000) Decl.     Delta      r     Elong.  Phase     V
2010 03 05    10 25.95   +07 48.2    0.488    1.476   171.0     6.0    18.3
2010 03 15    10 04.89   +02 28.4    0.446    1.415   156.6    16.2    18.4
2010 03 25    09 45.10   -03 39.1    0.426    1.360   142.5    26.5    18.5
2010 04 04    09 29.94   -10 02.9    0.422    1.312   129.9    35.8    18.7
2010 04 14    09 21.29   -16 17.9    0.431    1.272   119.6    43.3    18.9
2010 04 24    09 19.82   -22 15.6    0.445    1.242   111.8    48.8    19.0
2010 05 04    09 25.43   -27 56.9    0.463    1.222   106.4    52.3    19.2
2010 05 14    09 38.03   -33 23.9    0.481    1.215   103.2    54.1    19.3
2010 05 24    09 58.09   -38 37.5    0.501    1.219   102.0    54.3    19.4
2010 06 03    10 26.36   -43 31.8    0.522    1.236   102.3    53.3    19.5
2010 06 13    11 03.99   -47 52.4    0.547    1.263   103.8    51.4    19.6
2010 06 23    11 51.56   -51 17.7    0.579    1.300   106.0    48.7    19.7
2010 07 03    12 47.46   -53 22.1    0.619    1.347   108.3    45.8    19.8
2010 07 13    13 47.19   -53 49.3    0.673    1.400   110.3    42.9    20.0
2010 07 23    14 44.88   -52 45.4    0.741    1.459   111.4    40.4    20.3
2010 08 02    15 36.28   -50 35.6    0.825    1.523   111.4    38.3    20.5
2010 08 12    16 20.25   -47 49.6    0.925    1.591   110.2    36.7    20.8
2010 08 22    16 57.64   -44 51.1    1.042    1.661   108.0    35.4    21.1
2010 09 01    17 29.81   -41 54.6    1.173    1.733   104.9    34.2    21.5
2010 09 11    17 58.06   -39 06.7    1.317    1.806   101.2    33.2    21.8

Timothy B. Spahr             (C) Copyright 2010 MPC           M.P.E.C. 2010-E43

Read MPEC 2010-E42 Read MPEC 2010-E44


MPEC number:

Enter an MPEC number in one of the following forms:

  • 1997-B01 (the full form)
  • J97B01 (the packed version of the full form)
  • B01 (the abbreviated form)

Valid HTML 4.01!